Kosmos-2268

operational
NORAD ID: 22999 Int'l Des: 1994-011 Owner: VKS Country: RU
LEOCIRCULARPOLAR

About Kosmos-2268

Description loading...

Live Position

Loading 3D Globe...

Upcoming Passes

Altitude History

Altitude vs Time

uPlot chart will show altitude changes over time

Two-Line Element Set

1 22999U 94011A 26061.44801351 .00000012 00000-0 67685-5 0 9997
2 22999 82.5743 48.4981 0011481 83.7696 35.2263 12.61224926475305
Epoch: Mar 2, 2026 • Age: 30 hours

Current Status

Altitude 1430.4 km
Velocity 7.14 km/s
Sub-Earth Point -21.88°S, 23.5°W
Launch Date Feb 12, 1994
Age 32 years
Type other

Technical Details

Classification Payload
Mass 225.00 kg
Dry Mass 225.00 kg
Total Mass 225.00 kg
Length 1.60 m
Diameter 0.80 m
Span 7.00 m
Shape Cyl + Ant
Manufacturer NPOPMR
Bus Type Strela-3
Phase Status In Orbit
Owner/State VKS/RU

Large Constellations

Loading constellations...